Follow iAlert.com on twitter @ialertcom
Search For Active Alerts in Your Area  
  Hi Guest:  [ Sign-up / Services ] [ Login ]

Current weather by "City, St" or "zip code"  
 

Advertise Here

Current Conditions: Allentown Queen City Municipal Airport, PA

Fair


86.0 F

Last Updated on Sep 21 2017, 4:55 pm EDT
Humidity: 46%
Wind Speed: SE 4.6 mph
Barometer 30.01 in
Dewpoint: 62.6 F
Visibility: 10.00 mi
Precip: --
Heat Index: 87 F
Wind Chill: NA
Current conditions at:

Allentown Queen City Municipal Airport, PA (KXLL)

Lat: 40.57 Lon: 75.488

Local Radar Image active severe weather and emergency alerts image image weather storm and storm spotter reports image weather observation monitoring service image
Local
Radar
Active
Alerts
Storm Reports Obs
Monitoring

iAlert Weather and Emergency Alert Notification Services:


ialert severe weather and emergency alerts by text message and email ialert daily weather forecast by email and text message service ialert real-time weather-observation monitoring and alert notification service ialert storm report monitoring alert notification

Observation History for Allentown Queen City Municipal Airport, PA


Time Wind
(mph)
Vis
(mi)
Weather Precip (in) Temperature (F) Relative
Humidity
Wind
Chill
(°F)
Heat
Index
(°F)
Pressure
Air Dwpt altimeter
(in)
sea level
(mb)
4:55 pm EDT SE 4.6 10.00 Fair -- 86.0 62.6 46% NA 87 30.01 M
3:55 pm EDT N 0.0 10.00 Fair -- 86.0 62.6 46% NA 87 30.01 M
2:55 pm EDT NE 3.5 10.00 Fair -- 84.0 60.8 45% NA 84 30.02 M
1:55 pm EDT NW 4.6 10.00 Partly Cloudy -- 84.0 62.6 48% NA 85 30.03 M
12:55 pm EDT N 0.0 10.00 Fair -- 82.0 62.6 51% NA 83 30.05 M
11:55 am EDT N 5.8 10.00 Fair -- 81.0 62.6 54% NA 82 30.06 M
10:55 am EDT NE 5.8 10.00 Fair -- 77.0 64.4 65% NA NA 30.07 M
10:35 am EDT N 3.5 10.00 Fair -- 77.0 64.4 65% NA NA 30.07 M
9:55 am EDT N 0.0 10.00 Fair -- 73.0 64.4 74% NA NA 30.07 M
9:35 am EDT N 0.0 10.00 Fair -- 72.0 64.4 78% NA NA 30.08 M
8:55 am EDT N 0.0 10.00 Fair -- 70.0 64.4 83% NA NA 30.07 M
7:55 am EDT N 0.0 10.00 Fair -- 64.0 62.6 94% NA NA 30.07 M
7:35 am EDT S 3.5 10.00 Fair -- 63.0 62.6 100% NA NA 30.07 M
6:55 am EDT S 3.5 10.00 Mostly Cloudy -- 63.0 60.8 94% NA NA 30.07 M
5:55 am EDT S 3.5 10.00 Partly Cloudy -- 63.0 60.8 94% NA NA 30.05 M
4:55 am EDT N 0.0 10.00 Partly Cloudy -- 63.0 62.6 100% NA NA 30.03 M
3:55 am EDT SW 3.5 10.00 Fair -- 63.0 62.6 100% NA NA 30.01 M
2:55 am EDT SW 3.5 10.00 Fair -- 64.0 62.6 94% NA NA 30.01 M
1:55 am EDT SW 3.5 10.00 Fair -- 64.0 62.6 94% NA NA 30.01 M
1:35 am EDT N 0.0 10.00 Fair -- 66.0 62.6 88% NA NA 30.01 M
12:55 am EDT N 0.0 10.00 Fair -- 66.0 64.4 94% NA NA 30.01 M
11:55 pm EDT SW 3.5 10.00 Fair -- 68.0 64.4 88% NA NA 30.01 M
10:55 pm EDT N 0.0 10.00 Fair -- 68.0 64.4 88% NA NA 30.00 M
9:55 pm EDT N 0.0 10.00 Fair -- 72.0 64.4 78% NA NA 29.98 M

Regional Weather Observation


Allentown Queen City Municipal Airport, PA (KXLL)

Fair
86.0 F

Reading, Reading Regional Airport, PA (KRDG)

A Few Clouds
86.0 F

Quakertown Airport, PA (KUKT)

Fair
82.0 F

Pottstown, Pottstown Limerick Airport, PA (KPTW)

Fair
84.0 F

Doylestown, Doylestown Airport, PA (KDYL)

Fair
82.0 F

Mount Pocono, Pocono Mountains Municipal Airport, PA (KMPO)

Fair
76.0 F

Advertise Here